Weather History for PATQ - March, 2014

Change the Weather History Date:

Thursday, March 6, 2014

  Actual Average (PABR) Record (PABR)
Temperature  
Mean Temperature -24 °F -14 °F  
Max Temperature -22 °F -8 °F 19 °F (2003)
Min Temperature -27 °F -21 °F -43 °F (1959)
Degree Days  
Heating Degree Days 90 79  
Month to date heating degree days 474  
Since 1 July heating degree days 13322  
Cooling Degree Days 0    
Month to date cooling degree days  
Year to date cooling degree days  
Moisture  
Dew Point -32 °F    
Average Humidity 70    
Maximum Humidity 76    
Minimum Humidity 62    
Precipitation  
Precipitation 0.00 in 0.00 in 0.05 in (2006)
Month to date precipitation 0.02  
Year to date precipitation 0.29  
Snow  
Snow 0.00 in 0.00 in 0.80 in (2006)
Month to date snowfall 0.4  
Since 1 July snowfall 29.4  
Snow Depth -    
Sea Level Pressure  
Sea Level Pressure 30.45 in    
Wind  
Wind Speed 9 mph (WSW)    
Max Wind Speed 15 mph    
Max Gust Speed -    
Visibility 9 miles    
Events Snow    
T = Trace of Precipitation, MM = Missing Value Source: NWS Daily Summary

Daily Weather History Graph

Daily Weather History Graph

Search for Another Location

Airport or City:

Trip Planner

Search our weather history database for the weather conditions in past years. The results will help you decide how hot, cold, wet, or windy it might be!

Date:

Astronomy

Mar. 06, 2014 Rise Set
Actual Time 8:33 AM AKST 6:50 PM AKST
Civil Twilight 7:31 AM AKST 7:52 PM AKST
Nautical Twilight 6:18 AM AKST 9:06 PM AKST
Astronomical Twilight 4:57 AM AKST 10:28 PM AKST
Moon 8:10 AM AKST (3/6) 3:40 AM AKST (3/6)
Length of Visible Light 12h 21m
Length of Day
10h 16m
Waxing Crescent, 34% of the Moon is Illuminated
Mar 6
Waxing Crescent
Mar 8
First Quarter
Mar 16
Full
Mar 23
Last Quarter
Mar 30
New

Hourly Weather History & Observations

Time (AKST) Temp. Windchill Dew Point Humidity Pressure Visibility Wind Dir Wind Speed Gust Speed Precip Events Conditions
12:56 AM -22.0 °F -35.6 °F -28.8 °F 71% 30.55 in 10.0 mi WNW 4.6 mph - N/A   Scattered Clouds
1:56 AM -22.9 °F -36.6 °F -28.8 °F 74% 30.54 in 10.0 mi West 4.6 mph - N/A   Clear
3:56 AM -24.9 °F -42.9 °F -31.9 °F 70% 30.53 in 10.0 mi West 6.9 mph - N/A   Mostly Cloudy
4:56 AM -26.9 °F -48.3 °F -33.9 °F 69% 30.53 in 10.0 mi West 9.2 mph - 0.00 in   Scattered Clouds
5:56 AM -25.6 °F -46.8 °F -32.8 °F 69% 30.50 in 10.0 mi West 9.2 mph - N/A Snow Light Snow
6:56 AM -27.9 °F -49.6 °F -35.9 °F 66% 30.53 in 7.0 mi WSW 9.2 mph - 0.00 in Snow Light Snow
7:44 AM -27.4 °F -49.0 °F -34.6 °F 69% 30.50 in 10.0 mi West 9.2 mph - 0.00 in   Scattered Clouds
7:56 AM -27.9 °F - -35.0 °F 69% 30.52 in 10.0 mi North - - 0.00 in   Mostly Cloudy
8:56 AM -27.9 °F -49.6 °F -35.0 °F 69% 30.52 in 5.0 mi West 9.2 mph - N/A   Haze
9:25 AM -27.4 °F -49.0 °F -36.4 °F 62% 30.48 in 2.5 mi SW 9.2 mph - 0.00 in Snow Light Snow
9:35 AM -27.4 °F -50.3 °F -36.4 °F 62% 30.48 in 5.0 mi WSW 10.4 mph - 0.00 in Snow Light Snow
9:56 AM -27.9 °F -52.1 °F -35.0 °F 69% 30.51 in 10.0 mi WSW 11.5 mph - 0.00 in   Mostly Cloudy
10:06 AM -27.4 °F -50.3 °F -36.4 °F 62% 30.48 in 10.0 mi West 10.4 mph - N/A   Scattered Clouds
10:56 AM -27.9 °F -53.2 °F -35.0 °F 69% 30.50 in 10.0 mi West 12.7 mph - N/A   Mostly Cloudy
11:42 AM -25.6 °F -49.2 °F -32.8 °F 69% 30.46 in 9.0 mi SW 11.5 mph - 0.00 in Snow Light Snow
11:56 AM -24.9 °F -48.3 °F -31.9 °F 70% 30.49 in 10.0 mi WSW 11.5 mph - 0.00 in Snow Light Snow
12:56 PM -22.9 °F -45.8 °F -29.9 °F 70% 30.48 in 10.0 mi WSW 11.5 mph - 0.00 in   Clear
1:56 PM -22.9 °F -44.7 °F -29.9 °F 70% 30.46 in 10.0 mi WSW 10.4 mph - N/A   Clear
2:56 PM -22.0 °F -42.3 °F -28.8 °F 71% 30.45 in 10.0 mi WSW 9.2 mph - N/A   Clear
3:56 PM -22.0 °F -44.7 °F -27.9 °F 74% 30.43 in 10.0 mi WSW 11.5 mph - N/A   Clear
4:56 PM -22.0 °F -43.6 °F -28.8 °F 71% 30.41 in 10.0 mi WSW 10.4 mph - N/A   Clear
5:56 PM -22.9 °F -46.8 °F -28.8 °F 74% 30.39 in 10.0 mi SW 12.7 mph - N/A   Clear
6:56 PM -24.0 °F -48.2 °F -31.0 °F 70% 30.37 in 10.0 mi WSW 12.7 mph - N/A   Partly Cloudy
7:56 PM -24.0 °F -50.1 °F -31.0 °F 70% 30.35 in 10.0 mi WSW 15.0 mph - N/A   Clear
8:56 PM -24.0 °F -47.2 °F -31.0 °F 70% 30.34 in 10.0 mi WSW 11.5 mph - 0.00 in   Clear
9:56 PM -24.9 °F -48.3 °F -31.0 °F 73% 30.33 in 10.0 mi WSW 11.5 mph - N/A   Clear
10:56 PM -24.9 °F -49.3 °F -31.0 °F 73% 30.31 in 10.0 mi WSW 12.7 mph - N/A   Partly Cloudy
11:07 PM -25.6 °F -48.0 °F -31.0 °F 76% 30.28 in 8.0 mi WSW 10.4 mph - N/A   Mostly Cloudy
11:56 PM -24.0 °F -49.2 °F -31.0 °F 70% 30.30 in 3.0 mi SW 13.8 mph - N/A   Haze